AAL3016 KPHX-KCVG

Flight info

Callsign AAL3016
Flight time 2h 43m
Altitude 35000
Route BROAK1 ABQ MIRME KA36Y/N0441F370 END SGF J98 FAM PLESS TERGE SARGO5
Aircraft A320/M-SDE3FGHIRWY/LB1

Departure

Time 2026-05-06 14:20
Airport Phoenix Sky Harbor International Airport (KPHX)

Arrival

Time 2026-05-06 17:03
Airport Cincinnati Northern Kentucky International Airport (KCVG)
Time Latitude Longitude Altitude Speed Heading
2026-05-06 13:40 33.43796 -112.00127 1124 ft 0 kts 270°
2026-05-06 14:05 33.43796 -112.00114 1117 ft 3 kts 270°
2026-05-06 14:05 33.43797 -112.00092 1119 ft 3 kts 280°
2026-05-06 14:06 33.43789 -112.00076 1116 ft 3 kts 351°
2026-05-06 14:06 33.43768 -112.00075 1114 ft 3 kts
2026-05-06 14:06 33.43746 -112.00075 1118 ft 3 kts
2026-05-06 14:06 33.43724 -112.00075 1117 ft 3 kts
2026-05-06 14:07 33.43706 -112.00075 1116 ft 3 kts
2026-05-06 14:07 33.43697 -112.00075 1119 ft 0 kts
2026-05-06 14:13 33.43698 -112.00075 1124 ft 0 kts
2026-05-06 14:13 33.43715 -112.00075 1121 ft 5 kts
2026-05-06 14:13 33.43773 -112.00075 1119 ft 11 kts
2026-05-06 14:14 33.43854 -112.00075 1122 ft 10 kts 359°
2026-05-06 14:14 33.43904 -112.00035 1124 ft 10 kts 87°
2026-05-06 14:14 33.43904 -111.99943 1124 ft 12 kts 90°
2026-05-06 14:14 33.43904 -111.99839 1124 ft 13 kts 90°
2026-05-06 14:15 33.43904 -111.99719 1124 ft 16 kts 90°
2026-05-06 14:15 33.43904 -111.99580 1124 ft 18 kts 89°
2026-05-06 14:15 33.43904 -111.99433 1124 ft 15 kts 90°
2026-05-06 14:15 33.43903 -111.99311 1124 ft 14 kts 90°
2026-05-06 14:16 33.43872 -111.99228 1121 ft 12 kts 163°
2026-05-06 14:16 33.43783 -111.99226 1124 ft 14 kts 180°
2026-05-06 14:16 33.43681 -111.99226 1119 ft 16 kts 180°
2026-05-06 14:16 33.43554 -111.99226 1119 ft 20 kts 180°
2026-05-06 14:17 33.43423 -111.99244 1119 ft 18 kts 189°
2026-05-06 14:17 33.43305 -111.99247 1124 ft 17 kts 180°
2026-05-06 14:17 33.43214 -111.99256 1124 ft 12 kts 207°
2026-05-06 14:17 33.43149 -111.99329 1117 ft 13 kts 224°
2026-05-06 14:18 33.43105 -111.99396 1123 ft 9 kts 259°
2026-05-06 14:18 33.43104 -111.99416 1123 ft 0 kts 269°
2026-05-06 14:18 33.43104 -111.99421 1123 ft 4 kts 269°
2026-05-06 14:19 33.43104 -111.99650 1124 ft 61 kts 270°
2026-05-06 14:19 33.43105 -112.00403 1125 ft 116 kts 270°
2026-05-06 14:19 33.43105 -112.01564 1125 ft 161 kts 270°
2026-05-06 14:19 33.43095 -112.02945 1559 ft 164 kts 267°
2026-05-06 14:20 33.43022 -112.04312 2103 ft 166 kts 266°
2026-05-06 14:20 33.42941 -112.05699 2653 ft 168 kts 266°
2026-05-06 14:20 33.42871 -112.07137 3012 ft 183 kts 265°
2026-05-06 14:20 33.42524 -112.08692 3212 ft 206 kts 249°
2026-05-06 14:21 33.41977 -112.10369 3477 ft 225 kts 250°
2026-05-06 14:21 33.41386 -112.12221 3748 ft 250 kts 250°
2026-05-06 14:21 33.40750 -112.14232 4292 ft 264 kts 250°
2026-05-06 14:21 33.40066 -112.16298 5074 ft 270 kts 243°
2026-05-06 14:22 33.38788 -112.17937 5825 ft 276 kts 209°
2026-05-06 14:22 33.36930 -112.18470 6593 ft 280 kts 176°
2026-05-06 14:22 33.35000 -112.18087 7348 ft 283 kts 165°
2026-05-06 14:22 33.33108 -112.17391 8109 ft 287 kts 160°
2026-05-06 14:23 33.31215 -112.16588 8842 ft 291 kts 159°
2026-05-06 14:23 33.29386 -112.15537 9556 ft 294 kts 145°
2026-05-06 14:23 33.27799 -112.13965 10229 ft 298 kts 133°
2026-05-06 14:23 33.26471 -112.11969 10451 ft 319 kts 121°
2026-05-06 14:24 33.25448 -112.09523 10588 ft 340 kts 109°
2026-05-06 14:24 33.24851 -112.06747 10976 ft 350 kts 97°
2026-05-06 14:24 33.24765 -112.03829 11565 ft 353 kts 84°
2026-05-06 14:24 33.24959 -112.01899 11998 ft 355 kts 81°
2026-05-06 14:25 33.25292 -111.98958 12640 ft 359 kts 81°
2026-05-06 14:25 33.25636 -111.95995 13276 ft 362 kts 81°
2026-05-06 14:25 33.26211 -111.93059 13890 ft 365 kts 70°
2026-05-06 14:25 33.27250 -111.90282 14430 ft 368 kts 61°
2026-05-06 14:26 33.28453 -111.87570 14874 ft 371 kts 61°
2026-05-06 14:26 33.29656 -111.84838 15008 ft 372 kts 61°
2026-05-06 14:26 33.30855 -111.82101 15038 ft 372 kts 62°
2026-05-06 14:26 33.32048 -111.79364 15048 ft 372 kts 62°
2026-05-06 14:27 33.33251 -111.76596 15550 ft 375 kts 62°
2026-05-06 14:27 33.34457 -111.73817 16127 ft 378 kts 62°
2026-05-06 14:27 33.35673 -111.71020 16675 ft 381 kts 62°
2026-05-06 14:27 33.36902 -111.68203 17223 ft 384 kts 62°
2026-05-06 14:28 33.38142 -111.65359 17780 ft 387 kts 62°
2026-05-06 14:28 33.39390 -111.62487 18340 ft 390 kts 62°
2026-05-06 14:28 33.40650 -111.59590 18821 ft 394 kts 62°
2026-05-06 14:28 33.41919 -111.56671 19285 ft 398 kts 62°
2026-05-06 14:29 33.43087 -111.53649 19746 ft 403 kts 68°
2026-05-06 14:29 33.44082 -111.50493 20219 ft 407 kts 68°
2026-05-06 14:29 33.45088 -111.47306 20686 ft 411 kts 68°
2026-05-06 14:29 33.46103 -111.44088 21138 ft 415 kts 68°
2026-05-06 14:30 33.47130 -111.40833 21574 ft 419 kts 68°
2026-05-06 14:30 33.48165 -111.37556 21984 ft 423 kts 68°
2026-05-06 14:30 33.49212 -111.34238 22383 ft 428 kts 68°
2026-05-06 14:30 33.50270 -111.30889 22764 ft 432 kts 68°
2026-05-06 14:31 33.51336 -111.27502 23146 ft 437 kts 68°
2026-05-06 14:31 33.52411 -111.24080 23535 ft 441 kts 68°
2026-05-06 14:31 33.53488 -111.20619 23851 ft 446 kts 69°
2026-05-06 14:31 33.54528 -111.17093 24146 ft 450 kts 70°
2026-05-06 14:32 33.55529 -111.13521 24451 ft 454 kts 71°
2026-05-06 14:32 33.56515 -111.09907 24736 ft 458 kts 71°
2026-05-06 14:32 33.57505 -111.06260 25017 ft 462 kts 71°
2026-05-06 14:32 33.58507 -111.02585 25314 ft 465 kts 71°
2026-05-06 14:33 33.59524 -110.98892 25627 ft 468 kts 71°
2026-05-06 14:33 33.60554 -110.95172 25941 ft 470 kts 71°
2026-05-06 14:33 33.61591 -110.91450 26262 ft 473 kts 70°
2026-05-06 14:33 33.62647 -110.87694 26581 ft 475 kts 70°
2026-05-06 14:34 33.63706 -110.83926 26898 ft 478 kts 71°
2026-05-06 14:34 33.64767 -110.80135 27208 ft 480 kts 71°
2026-05-06 14:34 33.65829 -110.76322 27521 ft 483 kts 71°
2026-05-06 14:34 33.66893 -110.72484 27811 ft 486 kts 71°
2026-05-06 14:35 33.67959 -110.68619 28118 ft 489 kts 71°
2026-05-06 14:35 33.69027 -110.64739 28465 ft 490 kts 71°
2026-05-06 14:35 33.70098 -110.60849 28874 ft 491 kts 71°
2026-05-06 14:35 33.71168 -110.56956 29241 ft 492 kts 71°
2026-05-06 14:36 33.72240 -110.53054 29613 ft 493 kts 71°
2026-05-06 14:36 33.73318 -110.49141 29985 ft 494 kts 71°
2026-05-06 14:36 33.74400 -110.45210 30309 ft 495 kts 71°
2026-05-06 14:36 33.75463 -110.41327 30621 ft 497 kts 72°
2026-05-06 14:37 33.76539 -110.37381 30935 ft 498 kts 72°
2026-05-06 14:37 33.77618 -110.33425 31249 ft 499 kts 72°
2026-05-06 14:37 33.78701 -110.29450 31528 ft 500 kts 72°
2026-05-06 14:37 33.79786 -110.25464 31852 ft 501 kts 72°
2026-05-06 14:38 33.80871 -110.21477 32173 ft 502 kts 72°
2026-05-06 14:38 33.81956 -110.17480 32488 ft 503 kts 72°
2026-05-06 14:38 33.83039 -110.13483 32808 ft 504 kts 72°
2026-05-06 14:38 33.84129 -110.09462 33141 ft 505 kts 72°
2026-05-06 14:39 33.85217 -110.05440 33464 ft 506 kts 73°
2026-05-06 14:39 33.86303 -110.01409 33786 ft 507 kts 73°
2026-05-06 14:39 33.87389 -109.97378 34080 ft 508 kts 73°
2026-05-06 14:39 33.88482 -109.93329 34327 ft 509 kts 73°
2026-05-06 14:40 33.89578 -109.89265 34559 ft 510 kts 73°
2026-05-06 14:40 33.90672 -109.85200 34807 ft 511 kts 73°
2026-05-06 14:40 33.91763 -109.81136 34981 ft 512 kts 73°
2026-05-06 14:40 33.92861 -109.77028 35027 ft 518 kts 73°
2026-05-06 14:41 33.95086 -109.68693 35015 ft 525 kts 73°
2026-05-06 14:41 33.97321 -109.60318 35059 ft 526 kts 73°
2026-05-06 14:42 33.99561 -109.51920 35097 ft 527 kts 73°
2026-05-06 14:42 34.01795 -109.43489 35140 ft 528 kts 73°
2026-05-06 14:43 34.04014 -109.35052 35169 ft 528 kts 73°
2026-05-06 14:43 34.06233 -109.26604 35164 ft 529 kts 73°
2026-05-06 14:44 34.08457 -109.18144 35147 ft 530 kts 73°
2026-05-06 14:45 34.11790 -109.05419 35081 ft 531 kts 73°
2026-05-06 14:45 34.14002 -108.96902 35035 ft 532 kts 74°
2026-05-06 14:46 34.16210 -108.88375 34991 ft 533 kts 74°
2026-05-06 14:46 34.18419 -108.79833 34986 ft 533 kts 74°
2026-05-06 14:47 34.20632 -108.71264 34990 ft 534 kts 74°
2026-05-06 14:47 34.22834 -108.62681 34994 ft 535 kts 74°
2026-05-06 14:48 34.25036 -108.54079 34992 ft 536 kts 74°
2026-05-06 14:48 34.27240 -108.45458 34996 ft 537 kts 74°
2026-05-06 14:49 34.29440 -108.36817 34995 ft 538 kts 74°
2026-05-06 14:49 34.31641 -108.28157 34997 ft 539 kts 75°
2026-05-06 14:50 34.33839 -108.19477 35000 ft 540 kts 75°
2026-05-06 14:50 34.36032 -108.10776 35000 ft 541 kts 75°
2026-05-06 14:51 34.38438 -108.02144 34998 ft 542 kts 65°
2026-05-06 14:51 34.42295 -107.94328 34998 ft 541 kts 53°
2026-05-06 14:52 34.46521 -107.86781 34998 ft 542 kts 54°
2026-05-06 14:52 34.50732 -107.79206 35000 ft 542 kts 54°
2026-05-06 14:53 34.54948 -107.71626 34997 ft 542 kts 54°
2026-05-06 14:53 34.59167 -107.64044 34988 ft 542 kts 54°
2026-05-06 14:54 34.63386 -107.56442 34988 ft 543 kts 54°
2026-05-06 14:54 34.67597 -107.48837 34979 ft 543 kts 54°
2026-05-06 14:55 34.71804 -107.41222 34975 ft 543 kts 54°
2026-05-06 14:55 34.76007 -107.33596 34973 ft 543 kts 54°
2026-05-06 14:56 34.80202 -107.25960 34970 ft 543 kts 54°
2026-05-06 14:56 34.84365 -107.18365 34971 ft 543 kts 54°
2026-05-06 14:57 34.88549 -107.10713 34967 ft 543 kts 54°
2026-05-06 14:57 34.92731 -107.03060 35010 ft 543 kts 54°
2026-05-06 14:58 34.96917 -106.95392 35053 ft 542 kts 54°
2026-05-06 14:58 35.01083 -106.87718 35096 ft 543 kts 54°
2026-05-06 14:59 35.04786 -106.79712 35124 ft 543 kts 69°
2026-05-06 14:59 35.07179 -106.70979 35115 ft 543 kts 73°
2026-05-06 15:00 35.09485 -106.62193 35103 ft 544 kts 73°
2026-05-06 15:00 35.11783 -106.53377 35090 ft 545 kts 74°
2026-05-06 15:01 35.14081 -106.44529 35052 ft 547 kts 74°
2026-05-06 15:01 35.16376 -106.35671 35008 ft 547 kts 74°
2026-05-06 15:02 35.18671 -106.26806 34966 ft 548 kts 74°
2026-05-06 15:02 35.20966 -106.17906 34937 ft 549 kts 74°
2026-05-06 15:03 35.23254 -106.08990 34936 ft 550 kts 74°
2026-05-06 15:03 35.25541 -106.00052 34939 ft 551 kts 74°
2026-05-06 15:04 35.27821 -105.91099 34937 ft 551 kts 75°
2026-05-06 15:04 35.30094 -105.82129 34933 ft 552 kts 75°
2026-05-06 15:05 35.32366 -105.73131 34921 ft 553 kts 75°
2026-05-06 15:05 35.34636 -105.64129 34921 ft 554 kts 75°
2026-05-06 15:06 35.36910 -105.55098 34919 ft 555 kts 75°
2026-05-06 15:06 35.38802 -105.47573 34909 ft 555 kts 75°
2026-05-06 15:07 35.41063 -105.38523 34926 ft 556 kts 75°
2026-05-06 15:07 35.43319 -105.29439 34956 ft 557 kts 75°
2026-05-06 15:08 35.45568 -105.20338 34977 ft 558 kts 75°
2026-05-06 15:08 35.47819 -105.11237 34985 ft 558 kts 76°
2026-05-06 15:09 35.50069 -105.02112 34982 ft 559 kts 76°
2026-05-06 15:09 35.52311 -104.92983 34962 ft 559 kts 76°
2026-05-06 15:10 35.54545 -104.83828 34921 ft 560 kts 76°
2026-05-06 15:10 35.56783 -104.74646 34909 ft 561 kts 76°
2026-05-06 15:11 35.59014 -104.65450 34915 ft 562 kts 76°
2026-05-06 15:11 35.61241 -104.56242 34933 ft 563 kts 76°
2026-05-06 15:12 35.63457 -104.47008 34944 ft 563 kts 76°
2026-05-06 15:12 35.65670 -104.37771 34951 ft 563 kts 76°
2026-05-06 15:13 35.67883 -104.28530 34958 ft 564 kts 77°
2026-05-06 15:13 35.70092 -104.19267 34969 ft 564 kts 77°
2026-05-06 15:14 35.72296 -104.10009 34975 ft 564 kts 77°
2026-05-06 15:14 35.74492 -104.00722 34984 ft 565 kts 77°
2026-05-06 15:15 35.76668 -103.91432 34993 ft 566 kts 77°
2026-05-06 15:15 35.78630 -103.82071 34996 ft 561 kts 86°
2026-05-06 15:16 35.79812 -103.72576 35002 ft 561 kts 86°
2026-05-06 15:16 35.80989 -103.63062 35008 ft 562 kts 86°
2026-05-06 15:17 35.82165 -103.53523 35018 ft 563 kts 87°
2026-05-06 15:17 35.83334 -103.43974 35017 ft 563 kts 87°
2026-05-06 15:18 35.84492 -103.34428 35020 ft 564 kts 87°
2026-05-06 15:18 35.85645 -103.24914 35024 ft 565 kts 87°
2026-05-06 15:19 35.86804 -103.15266 35030 ft 565 kts 87°
2026-05-06 15:19 35.87937 -103.05732 35033 ft 566 kts 87°
2026-05-06 15:20 35.89076 -102.96058 35036 ft 567 kts 87°
2026-05-06 15:20 35.90206 -102.86442 35061 ft 567 kts 88°
2026-05-06 15:21 35.91334 -102.76797 35084 ft 568 kts 88°
2026-05-06 15:21 35.92450 -102.67160 35102 ft 568 kts 88°
2026-05-06 15:22 35.93546 -102.57570 35117 ft 568 kts 88°
2026-05-06 15:22 35.94651 -102.47906 35114 ft 569 kts 88°
2026-05-06 15:23 35.95757 -102.38155 35096 ft 570 kts 88°
2026-05-06 15:23 35.96838 -102.28527 35080 ft 570 kts 88°
2026-05-06 15:24 35.97922 -102.18820 35096 ft 571 kts 88°
2026-05-06 15:24 35.99003 -102.09101 35111 ft 571 kts 88°
2026-05-06 15:25 36.00062 -101.99377 35112 ft 571 kts 88°
2026-05-06 15:25 36.01074 -101.89637 35129 ft 574 kts 89°
2026-05-06 15:25 36.01559 -101.84736 35320 ft 575 kts 89°
2026-05-06 15:26 36.02042 -101.79837 35551 ft 576 kts 89°
2026-05-06 15:26 36.02528 -101.74928 35794 ft 576 kts 89°
2026-05-06 15:26 36.03016 -101.70008 36025 ft 577 kts 89°
2026-05-06 15:26 36.03508 -101.65090 36261 ft 577 kts 89°
2026-05-06 15:27 36.03998 -101.60171 36506 ft 577 kts 89°
2026-05-06 15:27 36.04485 -101.55256 36738 ft 577 kts 89°
2026-05-06 15:27 36.04970 -101.50331 36962 ft 577 kts 89°
2026-05-06 15:27 36.05450 -101.45410 37090 ft 578 kts 89°
2026-05-06 15:28 36.05924 -101.40477 37099 ft 578 kts 89°
2026-05-06 15:28 36.06865 -101.30611 37110 ft 578 kts 89°
2026-05-06 15:29 36.07813 -101.20737 37114 ft 579 kts 89°
2026-05-06 15:29 36.08747 -101.10852 37116 ft 579 kts 89°
2026-05-06 15:30 36.09671 -101.00968 37121 ft 579 kts 89°
2026-05-06 15:30 36.10596 -100.91076 37123 ft 579 kts 89°
2026-05-06 15:31 36.11513 -100.81172 37123 ft 580 kts 89°
2026-05-06 15:31 36.12405 -100.71324 37127 ft 580 kts 89°
2026-05-06 15:32 36.13742 -100.56436 37135 ft 581 kts 89°
2026-05-06 15:32 36.14633 -100.46498 37139 ft 581 kts 89°
2026-05-06 15:33 36.15526 -100.36489 37140 ft 582 kts 89°
2026-05-06 15:33 36.16394 -100.26532 37145 ft 582 kts 89°
2026-05-06 15:34 36.17250 -100.16582 37146 ft 582 kts 89°
2026-05-06 15:34 36.18103 -100.06626 37143 ft 581 kts 89°
2026-05-06 15:35 36.18948 -99.96668 37142 ft 582 kts 89°
2026-05-06 15:35 36.19788 -99.86778 37142 ft 582 kts 90°
2026-05-06 15:36 36.20627 -99.76751 37143 ft 582 kts 90°
2026-05-06 15:36 36.21444 -99.66836 37147 ft 583 kts 90°
2026-05-06 15:37 36.22253 -99.56856 37144 ft 583 kts 90°
2026-05-06 15:37 36.23059 -99.46871 37157 ft 583 kts 90°
2026-05-06 15:38 36.23864 -99.36877 37153 ft 583 kts 90°
2026-05-06 15:38 36.24664 -99.26829 37146 ft 583 kts 90°
2026-05-06 15:39 36.25438 -99.16828 37139 ft 583 kts 90°
2026-05-06 15:39 36.26200 -99.06835 37132 ft 583 kts 90°
2026-05-06 15:40 36.26969 -98.96834 37129 ft 583 kts 90°
2026-05-06 15:40 36.27727 -98.86891 37129 ft 583 kts 90°
2026-05-06 15:41 36.28472 -98.76887 37123 ft 583 kts 90°
2026-05-06 15:41 36.29211 -98.66876 37124 ft 583 kts 90°
2026-05-06 15:42 36.29946 -98.56870 37114 ft 583 kts 90°
2026-05-06 15:42 36.30666 -98.46863 37106 ft 583 kts 91°
2026-05-06 15:43 36.31384 -98.36855 37103 ft 583 kts 90°
2026-05-06 15:43 36.32099 -98.26839 37098 ft 583 kts 91°
2026-05-06 15:44 36.32794 -98.16821 37097 ft 583 kts 91°
2026-05-06 15:44 36.33481 -98.06800 37102 ft 583 kts 91°
2026-05-06 15:45 36.34162 -97.96773 37108 ft 584 kts 91°
2026-05-06 15:45 36.35698 -97.86829 37116 ft 592 kts 75°
2026-05-06 15:46 36.38086 -97.77051 37156 ft 592 kts 75°
2026-05-06 15:46 36.40451 -97.67245 37159 ft 593 kts 75°
2026-05-06 15:47 36.42799 -97.57445 37147 ft 593 kts 75°
2026-05-06 15:47 36.45139 -97.47622 37131 ft 593 kts 75°
2026-05-06 15:48 36.47079 -97.39461 37138 ft 593 kts 75°
2026-05-06 15:48 36.49412 -97.29625 37155 ft 593 kts 75°
2026-05-06 15:49 36.51744 -97.19786 37156 ft 593 kts 75°
2026-05-06 15:49 36.54058 -97.09943 37158 ft 593 kts 75°
2026-05-06 15:50 36.56364 -97.00089 37159 ft 593 kts 75°
2026-05-06 15:50 36.58664 -96.90231 37158 ft 593 kts 76°
2026-05-06 15:51 36.60951 -96.80369 37147 ft 594 kts 76°
2026-05-06 15:51 36.63244 -96.70483 37147 ft 594 kts 76°
2026-05-06 15:52 36.65522 -96.60594 37141 ft 594 kts 76°
2026-05-06 15:52 36.67794 -96.50701 37142 ft 594 kts 76°
2026-05-06 15:53 36.70055 -96.40813 37142 ft 593 kts 76°
2026-05-06 15:53 36.72307 -96.30916 37154 ft 593 kts 76°
2026-05-06 15:54 36.74544 -96.21008 37168 ft 593 kts 76°
2026-05-06 15:54 36.76775 -96.11114 37162 ft 593 kts 76°
2026-05-06 15:55 36.79005 -96.01208 37158 ft 593 kts 76°
2026-05-06 15:55 36.81225 -95.91295 37159 ft 593 kts 76°
2026-05-06 15:56 36.83429 -95.81377 37151 ft 593 kts 76°
2026-05-06 15:56 36.85629 -95.71453 37149 ft 593 kts 76°
2026-05-06 15:57 36.87826 -95.61511 37151 ft 593 kts 76°
2026-05-06 15:57 36.90009 -95.51568 37149 ft 594 kts 76°
2026-05-06 15:58 36.92191 -95.41613 37150 ft 594 kts 76°
2026-05-06 15:58 36.94366 -95.31642 37147 ft 594 kts 76°
2026-05-06 15:59 36.96529 -95.21676 37141 ft 594 kts 76°
2026-05-06 15:59 36.98691 -95.11705 37147 ft 594 kts 76°
2026-05-06 16:00 37.00847 -95.01721 37137 ft 594 kts 76°
2026-05-06 16:00 37.02988 -94.91742 37128 ft 594 kts 76°
2026-05-06 16:01 37.05114 -94.81754 37127 ft 594 kts 76°
2026-05-06 16:01 37.07227 -94.71766 37124 ft 593 kts 76°
2026-05-06 16:02 37.09338 -94.61779 37127 ft 593 kts 76°
2026-05-06 16:02 37.11449 -94.51792 37135 ft 593 kts 76°
2026-05-06 16:03 37.13523 -94.41857 37139 ft 593 kts 76°
2026-05-06 16:03 37.15601 -94.31848 37142 ft 593 kts 76°
2026-05-06 16:04 37.17677 -94.21833 37137 ft 593 kts 76°
2026-05-06 16:04 37.19742 -94.11821 37148 ft 593 kts 76°
2026-05-06 16:05 37.21804 -94.01809 37135 ft 593 kts 76°
2026-05-06 16:05 37.23849 -93.91793 37132 ft 592 kts 76°
2026-05-06 16:06 37.25887 -93.81779 37120 ft 592 kts 76°
2026-05-06 16:06 37.27924 -93.71767 37130 ft 592 kts 76°
2026-05-06 16:07 37.29946 -93.61752 37135 ft 591 kts 76°
2026-05-06 16:07 37.31951 -93.51742 37143 ft 591 kts 76°
2026-05-06 16:08 37.33944 -93.41734 37139 ft 590 kts 76°
2026-05-06 16:08 37.35802 -93.31690 37135 ft 589 kts 83°
2026-05-06 16:09 37.36981 -93.21517 37127 ft 588 kts 84°
2026-05-06 16:09 37.38133 -93.11345 37121 ft 588 kts 84°
2026-05-06 16:10 37.39280 -93.01171 37110 ft 587 kts 83°
2026-05-06 16:10 37.40432 -92.91003 37116 ft 587 kts 83°
2026-05-06 16:11 37.41577 -92.80835 37121 ft 587 kts 83°
2026-05-06 16:11 37.42698 -92.70678 37129 ft 586 kts 84°
2026-05-06 16:12 37.43815 -92.60511 37131 ft 586 kts 83°
2026-05-06 16:12 37.44926 -92.50366 37127 ft 585 kts 83°
2026-05-06 16:13 37.46024 -92.40209 37115 ft 585 kts 83°
2026-05-06 16:13 37.47103 -92.30067 37103 ft 585 kts 83°
2026-05-06 16:14 37.48181 -92.19922 37105 ft 584 kts 83°
2026-05-06 16:14 37.49262 -92.09779 37106 ft 584 kts 83°
2026-05-06 16:15 37.50330 -91.99634 37110 ft 584 kts 83°
2026-05-06 16:15 37.51384 -91.89499 37112 ft 584 kts 83°
2026-05-06 16:16 37.52423 -91.79365 37113 ft 583 kts 83°
2026-05-06 16:16 37.53456 -91.69231 37118 ft 583 kts 83°
2026-05-06 16:17 37.54478 -91.59111 37119 ft 582 kts 83°
2026-05-06 16:17 37.55487 -91.48989 37119 ft 582 kts 83°
2026-05-06 16:18 37.56503 -91.38814 37122 ft 581 kts 83°
2026-05-06 16:18 37.57500 -91.28769 37122 ft 581 kts 83°
2026-05-06 16:19 37.58485 -91.18663 37120 ft 580 kts 83°
2026-05-06 16:19 37.59459 -91.08565 37129 ft 580 kts 83°
2026-05-06 16:20 37.60422 -90.98467 37123 ft 580 kts 83°
2026-05-06 16:20 37.61382 -90.88378 37121 ft 579 kts 83°
2026-05-06 16:21 37.62331 -90.78301 37115 ft 578 kts 83°
2026-05-06 16:21 37.63274 -90.68224 37115 ft 578 kts 83°
2026-05-06 16:22 37.64206 -90.58168 37112 ft 577 kts 83°
2026-05-06 16:22 37.65126 -90.48105 37104 ft 577 kts 83°
2026-05-06 16:23 37.66036 -90.38054 37108 ft 576 kts 83°
2026-05-06 16:23 37.66929 -90.28006 37112 ft 576 kts 83°
2026-05-06 16:24 37.67859 -90.17971 37108 ft 575 kts 82°
2026-05-06 16:24 37.68992 -90.07985 37115 ft 574 kts 80°
2026-05-06 16:25 37.70179 -89.98016 37130 ft 576 kts 83°
2026-05-06 16:25 37.71320 -89.87864 37098 ft 588 kts 84°
2026-05-06 16:26 37.72427 -89.77594 37093 ft 591 kts 84°
2026-05-06 16:26 37.73528 -89.67290 37089 ft 592 kts 84°
2026-05-06 16:27 37.74633 -89.56995 37078 ft 592 kts 84°
2026-05-06 16:27 37.75736 -89.46686 37082 ft 592 kts 84°
2026-05-06 16:28 37.76640 -89.38116 37089 ft 592 kts 84°
2026-05-06 16:28 37.77721 -89.27793 37097 ft 592 kts 84°
2026-05-06 16:29 37.78788 -89.17461 37100 ft 592 kts 84°
2026-05-06 16:29 37.79845 -89.07136 37099 ft 592 kts 84°
2026-05-06 16:30 37.80725 -88.98554 37098 ft 592 kts 84°
2026-05-06 16:30 37.81973 -88.86481 37095 ft 592 kts 84°
2026-05-06 16:31 37.83041 -88.76164 37100 ft 591 kts 84°
2026-05-06 16:31 37.84104 -88.65850 37113 ft 591 kts 84°
2026-05-06 16:32 37.85147 -88.55543 37110 ft 591 kts 84°
2026-05-06 16:32 37.86169 -88.45226 37118 ft 590 kts 84°
2026-05-06 16:33 37.87193 -88.34906 37091 ft 590 kts 84°
2026-05-06 16:34 37.88720 -88.19453 37076 ft 590 kts 84°
2026-05-06 16:34 37.89717 -88.09150 37076 ft 590 kts 84°
2026-05-06 16:35 37.90700 -87.98839 37078 ft 590 kts 84°
2026-05-06 16:35 37.91192 -87.93681 36749 ft 591 kts 84°
2026-05-06 16:35 37.91687 -87.88515 36206 ft 590 kts 84°
2026-05-06 16:35 37.92178 -87.83363 35621 ft 589 kts 84°
2026-05-06 16:36 37.92768 -87.78242 35047 ft 589 kts 78°
2026-05-06 16:36 37.93847 -87.73245 34486 ft 587 kts 68°
2026-05-06 16:36 37.95339 -87.68449 33911 ft 585 kts 65°
2026-05-06 16:36 37.96865 -87.63684 33348 ft 582 kts 65°
2026-05-06 16:37 37.98374 -87.58938 32877 ft 576 kts 65°
2026-05-06 16:37 37.99855 -87.54252 32423 ft 569 kts 65°
2026-05-06 16:37 38.01312 -87.49629 31970 ft 561 kts 65°
2026-05-06 16:37 38.02746 -87.45066 31540 ft 552 kts 65°
2026-05-06 16:38 38.04159 -87.40578 31122 ft 544 kts 65°
2026-05-06 16:38 38.05554 -87.36157 30720 ft 536 kts 65°
2026-05-06 16:38 38.06931 -87.31802 30314 ft 528 kts 65°
2026-05-06 16:38 38.08292 -87.27503 29871 ft 521 kts 65°
2026-05-06 16:39 38.09632 -87.23256 29398 ft 515 kts 65°
2026-05-06 16:39 38.10954 -87.19050 28903 ft 510 kts 65°
2026-05-06 16:39 38.12262 -87.14877 28391 ft 507 kts 65°
2026-05-06 16:39 38.13558 -87.10730 27911 ft 503 kts 65°
2026-05-06 16:40 38.14840 -87.06616 27429 ft 500 kts 65°
2026-05-06 16:40 38.16115 -87.02522 26954 ft 497 kts 66°
2026-05-06 16:40 38.17387 -86.98439 26498 ft 497 kts 66°
2026-05-06 16:40 38.18661 -86.94351 26033 ft 498 kts 66°
2026-05-06 16:41 38.19933 -86.90260 25577 ft 498 kts 66°
2026-05-06 16:41 38.21205 -86.86156 25133 ft 498 kts 66°
2026-05-06 16:41 38.22470 -86.82068 24692 ft 498 kts 66°
2026-05-06 16:41 38.23732 -86.77982 24204 ft 491 kts 66°
2026-05-06 16:42 38.24963 -86.73979 23724 ft 480 kts 66°
2026-05-06 16:42 38.26053 -86.70022 23191 ft 469 kts 75°
2026-05-06 16:42 38.26786 -86.66029 22834 ft 460 kts 77°
2026-05-06 16:42 38.27495 -86.62071 22719 ft 458 kts 77°
2026-05-06 16:43 38.28208 -86.58127 22600 ft 457 kts 77°
2026-05-06 16:43 38.28917 -86.54190 22371 ft 454 kts 77°
2026-05-06 16:43 38.29614 -86.50286 22353 ft 453 kts 77°
2026-05-06 16:43 38.30310 -86.46371 22313 ft 454 kts 77°
2026-05-06 16:44 38.31005 -86.42458 22055 ft 451 kts 77°
2026-05-06 16:44 38.31694 -86.38573 22003 ft 449 kts 77°
2026-05-06 16:44 38.32374 -86.34736 22015 ft 450 kts 77°
2026-05-06 16:44 38.33066 -86.30800 22008 ft 450 kts 77°
2026-05-06 16:45 38.33739 -86.26955 22000 ft 450 kts 77°
2026-05-06 16:45 38.34433 -86.23070 22000 ft 450 kts 74°
2026-05-06 16:45 38.35452 -86.19316 21968 ft 448 kts 63°
2026-05-06 16:45 38.36867 -86.15789 21505 ft 446 kts 56°
2026-05-06 16:46 38.38370 -86.12357 21172 ft 441 kts 56°
2026-05-06 16:46 38.39861 -86.08953 20822 ft 437 kts 56°
2026-05-06 16:46 38.41336 -86.05578 20475 ft 434 kts 56°
2026-05-06 16:46 38.42797 -86.02227 20139 ft 431 kts 56°
2026-05-06 16:47 38.44244 -85.98898 19794 ft 427 kts 56°
2026-05-06 16:47 38.45678 -85.95594 19455 ft 424 kts 56°
2026-05-06 16:47 38.47103 -85.92314 19118 ft 421 kts 56°
2026-05-06 16:47 38.48518 -85.89058 18786 ft 418 kts 56°
2026-05-06 16:48 38.49921 -85.85825 18453 ft 415 kts 56°
2026-05-06 16:48 38.51313 -85.82614 18076 ft 412 kts 56°
2026-05-06 16:48 38.52692 -85.79426 17756 ft 407 kts 57°
2026-05-06 16:48 38.54052 -85.76272 17429 ft 403 kts 57°
2026-05-06 16:49 38.55396 -85.73147 17113 ft 399 kts 57°
2026-05-06 16:49 38.56730 -85.70050 16791 ft 397 kts 57°
2026-05-06 16:49 38.58041 -85.67009 16471 ft 392 kts 57°
2026-05-06 16:49 38.59320 -85.64042 16323 ft 370 kts 60°
2026-05-06 16:50 38.60532 -85.61226 16067 ft 356 kts 60°
2026-05-06 16:50 38.61716 -85.58469 15779 ft 353 kts 61°
2026-05-06 16:50 38.62893 -85.55724 15476 ft 351 kts 61°
2026-05-06 16:50 38.64066 -85.52989 15164 ft 350 kts 61°
2026-05-06 16:51 38.65233 -85.50261 14814 ft 350 kts 62°
2026-05-06 16:51 38.66392 -85.47545 14528 ft 347 kts 62°
2026-05-06 16:51 38.67546 -85.44843 14293 ft 341 kts 62°
2026-05-06 16:51 38.68736 -85.42283 13977 ft 332 kts 54°
2026-05-06 16:52 38.70121 -85.39886 13501 ft 337 kts 53°
2026-05-06 16:52 38.71505 -85.37505 13351 ft 330 kts 53°
2026-05-06 16:52 38.72872 -85.35150 12989 ft 329 kts 53°
2026-05-06 16:52 38.74238 -85.32792 12626 ft 330 kts 53°
2026-05-06 16:53 38.75605 -85.30428 12263 ft 330 kts 53°
2026-05-06 16:53 38.76973 -85.28045 11859 ft 332 kts 56°
2026-05-06 16:53 38.78082 -85.25414 11444 ft 332 kts 71°
2026-05-06 16:53 38.78701 -85.22629 11052 ft 325 kts 85°
2026-05-06 16:54 38.78871 -85.19804 10655 ft 312 kts 93°
2026-05-06 16:54 38.78943 -85.17062 10267 ft 304 kts 92°
2026-05-06 16:54 38.79022 -85.14391 9885 ft 296 kts 92°
2026-05-06 16:54 38.79100 -85.11814 9463 ft 290 kts 92°
2026-05-06 16:55 38.79178 -85.09222 9024 ft 284 kts 92°
2026-05-06 16:55 38.79253 -85.06709 8581 ft 280 kts 92°
2026-05-06 16:55 38.79327 -85.04268 8148 ft 276 kts 92°
2026-05-06 16:55 38.79399 -85.01794 7726 ft 281 kts 92°
2026-05-06 16:56 38.79493 -84.99294 7295 ft 279 kts 87°
2026-05-06 16:56 38.79895 -84.96861 6885 ft 280 kts 75°
2026-05-06 16:56 38.80489 -84.94494 6465 ft 277 kts 75°
2026-05-06 16:56 38.81077 -84.92138 6119 ft 270 kts 75°
2026-05-06 16:57 38.81646 -84.89852 5804 ft 270 kts 75°
2026-05-06 16:57 38.82207 -84.87584 5481 ft 270 kts 75°
2026-05-06 16:57 38.82772 -84.85291 5171 ft 270 kts 75°
2026-05-06 16:57 38.83337 -84.82989 4855 ft 263 kts 75°
2026-05-06 16:58 38.83875 -84.80799 4554 ft 252 kts 75°
2026-05-06 16:58 38.84393 -84.78690 4268 ft 242 kts 75°
2026-05-06 16:58 38.84895 -84.76652 4012 ft 239 kts 75°
2026-05-06 16:58 38.85390 -84.74638 3915 ft 237 kts 75°
2026-05-06 16:59 38.85880 -84.72635 3811 ft 235 kts 75°
2026-05-06 16:59 38.86383 -84.70636 3709 ft 235 kts 69°
2026-05-06 16:59 38.87232 -84.68884 3606 ft 229 kts 47°
2026-05-06 16:59 38.88468 -84.67634 3484 ft 225 kts 25°
2026-05-06 17:00 38.89935 -84.66993 3235 ft 222 kts
2026-05-06 17:00 38.91445 -84.66924 3040 ft 214 kts 355°
2026-05-06 17:00 38.92909 -84.66917 3012 ft 208 kts 355°
2026-05-06 17:00 38.94356 -84.66911 2753 ft 208 kts 356°
2026-05-06 17:01 38.95802 -84.66906 2477 ft 206 kts 357°
2026-05-06 17:01 38.97202 -84.66899 2216 ft 197 kts 357°
2026-05-06 17:01 38.98534 -84.66893 1961 ft 185 kts 356°
2026-05-06 17:01 38.99747 -84.66886 1694 ft 168 kts 356°
2026-05-06 17:02 39.00851 -84.66889 1453 ft 150 kts 355°
2026-05-06 17:02 39.01850 -84.66890 1240 ft 140 kts 356°
2026-05-06 17:02 39.02809 -84.66871 1043 ft 136 kts 358°
2026-05-06 17:02 39.03742 -84.66871 900 ft 133 kts 356°
2026-05-06 17:03 39.04554 -84.66872 886 ft 94 kts
2026-05-06 17:03 39.05020 -84.66872 884 ft 40 kts 359°
2026-05-06 17:03 39.05180 -84.66850 882 ft 17 kts 25°
2026-05-06 17:03 39.05220 -84.66768 881 ft 7 kts 96°
2026-05-06 17:04 39.05217 -84.66697 880 ft 10 kts 91°
2026-05-06 17:04 39.05216 -84.66598 879 ft 12 kts 90°
2026-05-06 17:04 39.05217 -84.66476 879 ft 15 kts 89°
2026-05-06 17:04 39.05217 -84.66336 879 ft 16 kts 90°
2026-05-06 17:05 39.05215 -84.66188 879 ft 17 kts 90°
2026-05-06 17:05 39.05215 -84.66064 879 ft 11 kts 90°
2026-05-06 17:05 39.05176 -84.66001 879 ft 11 kts 163°
2026-05-06 17:05 39.05156 -84.65922 879 ft 11 kts 88°
2026-05-06 17:06 39.05156 -84.65821 879 ft 11 kts 90°
2026-05-06 17:06 39.05156 -84.65720 879 ft 11 kts 90°
2026-05-06 17:06 39.05156 -84.65614 879 ft 11 kts 90°
2026-05-06 17:06 39.05156 -84.65527 879 ft 7 kts 90°
2026-05-06 17:07 39.05155 -84.65476 879 ft 7 kts 91°
2026-05-06 17:07 39.05155 -84.65407 879 ft 8 kts 90°
2026-05-06 17:07 39.05141 -84.65369 879 ft 4 kts 166°
2026-05-06 17:07 39.05109 -84.65371 879 ft 2 kts 181°
2026-05-06 17:08 39.05092 -84.65371 879 ft 2 kts 179°
2026-05-06 17:08 39.05088 -84.65370 879 ft 0 kts 179°